Hourly Data Report for June 24, 2004

TORONTO CITY
ONTARIO

43°40'00.000" N
79°24'00.000" W
112.50 m
6158355
71508
XTO

Download Data

Hourly Data (June 2004)
Hourly Data Report for June 24, 2004
TIME
LST
Temp Definition
°C
Dew Point Definition
°C
Rel Hum Definition
%
Precip. Amount Definition
mm

Wind Dir Definition
10's deg

Wind Spd Definition
km/h
Visibility Definition
km
Stn Press Definition
kPa
Hmdx Definition


Wind Chill Definition


Weather Definition


00:00 17.6 12.9 74   LegendMM LegendMM LegendMM 99.92     LegendNANA
01:00 17.3 12.3 72   LegendMM LegendMM LegendMM 99.87     LegendNANA
02:00 17.5 12.7 73   LegendMM LegendMM LegendMM 99.88     LegendNANA
03:00 16.4 13.7 84   LegendMM LegendMM LegendMM 99.81     LegendNANA
04:00 17.0 13.1 78   LegendMM LegendMM LegendMM 99.82     LegendNANA
05:00 17.7 13.7 77   LegendMM LegendMM LegendMM 99.73     LegendNANA
06:00 17.8 14.3 80   LegendMM LegendMM LegendMM 99.69     LegendNANA
07:00 18.7 14.8 78   LegendMM LegendMM LegendMM 99.70     LegendNANA
08:00 20.1 15.2 73   LegendMM LegendMM LegendMM 99.73     LegendNANA
09:00 21.8 15.7 68   LegendMM LegendMM LegendMM 99.70 26   LegendNANA
10:00 23.0 15.8 64   LegendMM LegendMM LegendMM 99.72 27   LegendNANA
11:00 24.5 16.1 59   LegendMM LegendMM LegendMM 99.75 29   LegendNANA
12:00 26.1 11.9 41   LegendMM LegendMM LegendMM 99.80 28   LegendNANA
13:00 25.1 8.1 34   LegendMM LegendMM LegendMM 99.82 26   LegendNANA
14:00 25.2 6.8 31   LegendMM LegendMM LegendMM 99.90 25   LegendNANA
15:00 23.8 9.2 39   LegendMM LegendMM LegendMM 99.93 25   LegendNANA
16:00 21.8 8.9 44   LegendMM LegendMM LegendMM 100.04     LegendNANA
17:00 20.3 7.9 45   LegendMM LegendMM LegendMM 100.10     LegendNANA
18:00 19.3 8.1 48   LegendMM LegendMM LegendMM 100.11     LegendNANA
19:00 15.8 11.1 74   LegendMM LegendMM LegendMM 100.17     LegendNANA
20:00 13.9 12.5 91   LegendMM LegendMM LegendMM 100.30     LegendNANA
21:00 13.1 10.4 84   LegendMM LegendMM LegendMM 100.46     LegendNANA
22:00 12.8 7.9 72   LegendMM LegendMM LegendMM 100.52     LegendNANA
23:00 12.3 7.7 73   LegendMM LegendMM LegendMM 100.57     LegendNANA

Notes on Data Quality.

Legend

  • E = Estimated
  • M = Missing
  • NA = Not Available*
  • [empty] = Indicates an unobserved value
Date modified: